Location: Moscow
(30.9132°N, 94.8252°W)
Time: 06:19:20
(UTC+00:00)

ATLAS CENTAUR Rocket - Pass Details

Date: 15 November 2025
Orbit: 702 x 36535 km, 28.1° (Epoch: 02 December)

Event Time Altitude Azimuth Distance (km) Brightness Sun altitude
Exits shadow 11:06:18 - 207° (SSW) 2,301 4.3 -21.5°
Reaches altitude 10° 11:06:39 10° 204° (SSW) 2,166 4.2 -21.4°
Maximum altitude 11:09:48 22° 149° (SSE) 1,606 4.1 -20.7°
Drops below altitude 10° 11:14:00 10° 97° (E) 2,954 6.2 -19.9°
Sets 11:18:53 0° 82° (E) 5,218 7.6 -18.8°
